Wolke Sonne

Wetter Ammerndorf

Gehe zu: Roßtal

Tageswerte vom Sonntag, 27.03.2022

Optionen

Tag:
Erweitert:

Alle Werte vom Sonntag, 27.03.2022

Einen Moment bitte, die Daten werden aufbereitet...

UhrzeitTemperaturBoden 10cmBoden 20cmFeuchteLuftdruckNiederschlagEvapotranspirationWindWindböenWindrichtungSolarstrahlungUV-IndexSonne?Uhrzeit
Diagramm IconDiagramm IconDiagramm IconDiagramm IconDiagramm IconDiagramm IconDiagramm IconDiagramm IconDiagramm IconDiagramm IconDiagramm IconDiagramm IconDiagramm Icon
00:001,6 °C 6,1 °C 6,1 °C 84 % 1031,6 hPa 0,0 mm - 0,0 km/h 0,0 km/h NNO 0,0 W/qm 0,0 nein 00:00
00:051,6 °C 6,1 °C 6,1 °C 84 % 1031,7 hPa 0,0 mm 0,0 mm 0,0 km/h 0,0 km/h NNO 0,0 W/qm 0,0 nein 00:05
00:101,5 °C 6,1 °C 6,1 °C 84 % 1031,7 hPa 0,0 mm 0,0 mm 0,0 km/h 0,0 km/h NNO 0,0 W/qm 0,0 nein 00:10
00:151,4 °C 6,1 °C 6,1 °C 85 % 1031,7 hPa 0,0 mm - 0,0 km/h 0,0 km/h NNO 0,0 W/qm 0,0 nein 00:15
00:201,3 °C 6,1 °C 6,1 °C 85 % 1031,7 hPa 0,0 mm - 0,0 km/h 0,0 km/h NNO 0,0 W/qm 0,0 nein 00:20
00:251,4 °C 6,1 °C 6,1 °C 86 % 1031,7 hPa 0,0 mm - 0,0 km/h 0,0 km/h NNO 0,0 W/qm 0,0 nein 00:25
00:301,2 °C 6,1 °C 6,1 °C 85 % 1031,8 hPa 0,0 mm - 0,0 km/h 0,0 km/h NNO 0,0 W/qm 0,0 nein 00:30
00:351,2 °C 6,1 °C 6,1 °C 86 % 1031,8 hPa 0,0 mm - 0,0 km/h 0,0 km/h NNO 0,0 W/qm 0,0 nein 00:35
00:401,1 °C 6,1 °C 6,1 °C 86 % 1031,8 hPa 0,0 mm - 0,0 km/h 0,0 km/h NNO 0,0 W/qm 0,0 nein 00:40
00:451,1 °C 6,1 °C 6,1 °C 86 % 1031,8 hPa 0,0 mm - 0,0 km/h 0,0 km/h NNO 0,0 W/qm 0,0 nein 00:45
00:500,9 °C 6,1 °C 6,1 °C 86 % 1031,9 hPa 0,0 mm - 0,0 km/h 0,0 km/h NNO 0,0 W/qm 0,0 nein 00:50
00:550,8 °C 6,1 °C 6,1 °C 86 % 1031,9 hPa 0,0 mm - 0,0 km/h 0,0 km/h NNO 0,0 W/qm 0,0 nein 00:55
01:000,9 °C 6,1 °C 6,1 °C 86 % 1032,0 hPa 0,0 mm - 0,0 km/h 0,0 km/h NNO 0,0 W/qm 0,0 nein 01:00
01:051,0 °C 6,1 °C 6,1 °C 87 % 1031,8 hPa 0,0 mm 0,0 mm 0,0 km/h 0,0 km/h NNO 0,0 W/qm 0,0 nein 01:05
01:100,9 °C 6,1 °C 6,1 °C 86 % 1031,9 hPa 0,0 mm 0,0 mm 0,0 km/h 0,0 km/h NNO 0,0 W/qm 0,0 nein 01:10
01:150,8 °C 5,6 °C 6,1 °C 86 % 1031,9 hPa 0,0 mm - 0,0 km/h 0,0 km/h NNO 0,0 W/qm 0,0 nein 01:15
01:200,7 °C 5,6 °C 6,1 °C 86 % 1032,0 hPa 0,0 mm - 0,0 km/h 0,0 km/h NNO 0,0 W/qm 0,0 nein 01:20
01:250,6 °C 5,6 °C 6,1 °C 86 % 1032,0 hPa 0,0 mm - 0,0 km/h 0,0 km/h NNO 0,0 W/qm 0,0 nein 01:25
01:300,5 °C 5,6 °C 6,1 °C 86 % 1032,0 hPa 0,0 mm - 0,0 km/h 0,0 km/h NNO 0,0 W/qm 0,0 nein 01:30
01:350,6 °C 5,6 °C 6,1 °C 87 % 1032,0 hPa 0,0 mm - 0,0 km/h 0,0 km/h NNO 0,0 W/qm 0,0 nein 01:35
01:400,6 °C 5,6 °C 6,1 °C 86 % 1031,9 hPa 0,0 mm - 0,0 km/h 0,0 km/h NNO 0,0 W/qm 0,0 nein 01:40
01:450,3 °C 5,6 °C 6,1 °C 86 % 1032,0 hPa 0,0 mm - 0,0 km/h 0,0 km/h NNO 0,0 W/qm 0,0 nein 01:45
01:500,2 °C 5,6 °C 6,1 °C 87 % 1032,1 hPa 0,0 mm - 0,0 km/h 0,0 km/h NNO 0,0 W/qm 0,0 nein 01:50
01:550,2 °C 5,6 °C 6,1 °C 87 % 1032,1 hPa 0,0 mm - 0,0 km/h 0,0 km/h NNO 0,0 W/qm 0,0 nein 01:55
UhrzeitTemperaturBoden 10cmBoden 20cmFeuchteLuftdruckNiederschlagEvapotranspirationWindWindböenWindrichtungSolarstrahlungUV-IndexSonne?Uhrzeit
03:000,1 °C 5,6 °C 6,1 °C 87 % 1032,1 hPa 0,0 mm - 0,0 km/h 0,0 km/h NNO 0,0 W/qm 0,0 nein 03:00
03:050,1 °C 5,6 °C 6,1 °C 87 % 1032,1 hPa 0,0 mm 0,0 mm 0,0 km/h 0,0 km/h NNO 0,0 W/qm 0,0 nein 03:05
03:100,1 °C 5,6 °C 6,1 °C 88 % 1032,1 hPa 0,0 mm 0,0 mm 0,0 km/h 0,0 km/h NNO 0,0 W/qm 0,0 nein 03:10
03:150,1 °C 5,6 °C 6,1 °C 88 % 1032,1 hPa 0,0 mm - 0,0 km/h 0,0 km/h NNO 0,0 W/qm 0,0 nein 03:15
03:20-0,1 °C 5,6 °C 6,1 °C 88 % 1032,0 hPa 0,0 mm - 0,0 km/h 0,0 km/h NNO 0,0 W/qm 0,0 nein 03:20
03:25-0,2 °C 5,6 °C 6,1 °C 88 % 1031,9 hPa 0,0 mm - 0,0 km/h 0,0 km/h NNO 0,0 W/qm 0,0 nein 03:25
03:30-0,2 °C 5,6 °C 6,1 °C 88 % 1031,9 hPa 0,0 mm - 0,0 km/h 0,0 km/h NNO 0,0 W/qm 0,0 nein 03:30
03:35-0,2 °C 5,6 °C 6,1 °C 88 % 1031,9 hPa 0,0 mm - 0,0 km/h 0,0 km/h NNO 0,0 W/qm 0,0 nein 03:35
03:40-0,4 °C 5,6 °C 6,1 °C 88 % 1031,9 hPa 0,0 mm - 0,0 km/h 0,0 km/h NNO 0,0 W/qm 0,0 nein 03:40
03:45-0,4 °C 5,6 °C 6,1 °C 88 % 1031,9 hPa 0,0 mm - 0,0 km/h 0,0 km/h NNO 0,0 W/qm 0,0 nein 03:45
03:50-0,4 °C 5,6 °C 6,1 °C 88 % 1031,9 hPa 0,0 mm - 0,0 km/h 0,0 km/h NNO 0,0 W/qm 0,0 nein 03:50
03:55-0,3 °C 5,6 °C 6,1 °C 89 % 1031,9 hPa 0,0 mm - 0,0 km/h 0,0 km/h NNO 0,0 W/qm 0,0 nein 03:55
04:00-0,3 °C 5,6 °C 6,1 °C 89 % 1031,8 hPa 0,0 mm - 0,0 km/h 0,0 km/h NNO 0,0 W/qm 0,0 nein 04:00
04:05-0,4 °C 5,6 °C 6,1 °C 89 % 1031,8 hPa 0,0 mm 0,0 mm 0,0 km/h 0,0 km/h NNO 0,0 W/qm 0,0 nein 04:05
04:10-0,6 °C 5,6 °C 6,1 °C 89 % 1031,9 hPa 0,0 mm 0,0 mm 0,0 km/h 0,0 km/h NNO 0,0 W/qm 0,0 nein 04:10
04:15-0,7 °C 5,6 °C 6,1 °C 89 % 1031,9 hPa 0,0 mm - 0,0 km/h 0,0 km/h NNO 0,0 W/qm 0,0 nein 04:15
04:20-0,8 °C 5,6 °C 6,1 °C 89 % 1031,9 hPa 0,0 mm - 0,0 km/h 0,0 km/h NNO 0,0 W/qm 0,0 nein 04:20
04:25-0,7 °C 5,6 °C 6,1 °C 89 % 1031,9 hPa 0,0 mm - 0,0 km/h 0,0 km/h NNO 0,0 W/qm 0,0 nein 04:25
04:30-0,7 °C 5,6 °C 6,1 °C 89 % 1031,9 hPa 0,0 mm - 0,0 km/h 0,0 km/h NNO 0,0 W/qm 0,0 nein 04:30
04:35-0,7 °C 5,6 °C 6,1 °C 89 % 1032,0 hPa 0,0 mm - 0,0 km/h 0,0 km/h NNO 0,0 W/qm 0,0 nein 04:35
04:40-0,8 °C 5,6 °C 6,1 °C 89 % 1031,9 hPa 0,0 mm - 0,0 km/h 0,0 km/h NNO 0,0 W/qm 0,0 nein 04:40
04:45-0,8 °C 5,6 °C 6,1 °C 89 % 1031,9 hPa 0,0 mm - 0,0 km/h 0,0 km/h NNO 0,0 W/qm 0,0 nein 04:45
04:50-0,9 °C 5,6 °C 6,1 °C 89 % 1031,8 hPa 0,0 mm - 0,0 km/h 0,0 km/h NNO 0,0 W/qm 0,0 nein 04:50
04:55-0,9 °C 5,6 °C 6,1 °C 90 % 1031,8 hPa 0,0 mm - 0,0 km/h 0,0 km/h NNO 0,0 W/qm 0,0 nein 04:55
UhrzeitTemperaturBoden 10cmBoden 20cmFeuchteLuftdruckNiederschlagEvapotranspirationWindWindböenWindrichtungSolarstrahlungUV-IndexSonne?Uhrzeit
05:00-0,9 °C 5,6 °C 6,1 °C 90 % 1031,8 hPa 0,0 mm - 0,0 km/h 0,0 km/h NNO 0,0 W/qm 0,0 nein 05:00
05:05-0,9 °C 5,6 °C 6,1 °C 90 % 1031,9 hPa 0,0 mm 0,0 mm 0,0 km/h 0,0 km/h NNO 0,0 W/qm 0,0 nein 05:05
05:10-1,0 °C 5,6 °C 6,1 °C 90 % 1031,9 hPa 0,0 mm 0,0 mm 0,0 km/h 0,0 km/h NNO 0,0 W/qm 0,0 nein 05:10
05:15-1,1 °C 5,6 °C 6,1 °C 90 % 1031,8 hPa 0,0 mm - 0,0 km/h 0,0 km/h NNO 0,0 W/qm 0,0 nein 05:15
05:20-1,1 °C 5,6 °C 6,1 °C 90 % 1032,0 hPa 0,0 mm - 0,0 km/h 0,0 km/h NNO 0,0 W/qm 0,0 nein 05:20
05:25-1,2 °C 5,0 °C 6,1 °C 90 % 1031,9 hPa 0,0 mm - 0,0 km/h 0,0 km/h NNO 0,0 W/qm 0,0 nein 05:25
05:30-1,2 °C 5,0 °C 6,1 °C 90 % 1031,9 hPa 0,0 mm - 0,0 km/h 0,0 km/h NNO 0,0 W/qm 0,0 nein 05:30
05:35-1,1 °C 5,0 °C 6,1 °C 90 % 1031,8 hPa 0,0 mm - 0,0 km/h 0,0 km/h NNO 0,0 W/qm 0,0 nein 05:35
05:40-1,2 °C 5,0 °C 6,1 °C 90 % 1031,9 hPa 0,0 mm - 0,0 km/h 0,0 km/h NNO 0,0 W/qm 0,0 nein 05:40
05:45-1,1 °C 5,0 °C 6,1 °C 90 % 1031,8 hPa 0,0 mm - 0,0 km/h 0,0 km/h NNO 0,0 W/qm 0,0 nein 05:45
05:50-1,1 °C 5,0 °C 6,1 °C 90 % 1031,8 hPa 0,0 mm - 0,0 km/h 0,0 km/h NNO 0,0 W/qm 0,0 nein 05:50
05:55-1,1 °C 5,0 °C 6,1 °C 90 % 1031,8 hPa 0,0 mm - 0,0 km/h 0,0 km/h NNO 0,0 W/qm 0,0 nein 05:55
06:00-1,2 °C 5,0 °C 6,1 °C 90 % 1032,0 hPa 0,0 mm - 0,0 km/h 0,0 km/h NNO 0,0 W/qm 0,0 nein 06:00
06:05-1,3 °C 5,0 °C 6,1 °C 90 % 1032,0 hPa 0,0 mm 0,0 mm 0,0 km/h 0,0 km/h NNO 0,0 W/qm 0,0 nein 06:05
06:10-1,4 °C 5,0 °C 6,1 °C 90 % 1032,0 hPa 0,0 mm 0,0 mm 0,0 km/h 0,0 km/h NNO 0,0 W/qm 0,0 nein 06:10
06:15-1,3 °C 5,0 °C 6,1 °C 91 % 1032,0 hPa 0,0 mm - 0,0 km/h 0,0 km/h NNO 0,0 W/qm 0,0 nein 06:15
06:20-1,3 °C 5,0 °C 6,1 °C 91 % 1032,0 hPa 0,0 mm - 0,0 km/h 0,0 km/h NNO 0,0 W/qm 0,0 nein 06:20
06:25-1,3 °C 5,0 °C 6,1 °C 91 % 1032,0 hPa 0,0 mm - 0,0 km/h 0,0 km/h NNO 0,0 W/qm 0,0 nein 06:25
06:30-1,3 °C 5,0 °C 6,1 °C 91 % 1032,0 hPa 0,0 mm - 0,0 km/h 0,0 km/h NNO 0,0 W/qm 0,0 nein 06:30
06:35-1,4 °C 5,0 °C 6,1 °C 91 % 1032,1 hPa 0,0 mm - 0,0 km/h 0,0 km/h NNO 0,0 W/qm 0,0 nein 06:35
06:40-1,4 °C 5,0 °C 5,6 °C 91 % 1032,1 hPa 0,0 mm - 0,0 km/h 0,0 km/h NNO 0,0 W/qm 0,0 nein 06:40
06:45-1,5 °C 5,0 °C 5,6 °C 91 % 1032,0 hPa 0,0 mm - 0,0 km/h 0,0 km/h NNO 0,0 W/qm 0,0 nein 06:45
06:50-1,5 °C 5,0 °C 5,6 °C 91 % 1032,0 hPa 0,0 mm - 0,0 km/h 0,0 km/h NNO 0,0 W/qm 0,0 nein 06:50
06:55-1,5 °C 5,0 °C 5,6 °C 91 % 1032,1 hPa 0,0 mm - 0,0 km/h 0,0 km/h NNO 0,0 W/qm 0,0 nein 06:55
UhrzeitTemperaturBoden 10cmBoden 20cmFeuchteLuftdruckNiederschlagEvapotranspirationWindWindböenWindrichtungSolarstrahlungUV-IndexSonne?Uhrzeit
07:00-1,5 °C 5,0 °C 5,6 °C 91 % 1032,1 hPa 0,0 mm - 0,0 km/h 0,0 km/h NNO 0,0 W/qm 0,0 nein 07:00
07:05-1,5 °C 5,0 °C 5,6 °C 91 % 1032,2 hPa 0,0 mm 0,0 mm 0,0 km/h 0,0 km/h NNO 5,0 W/qm 0,0 nein 07:05
07:10-1,5 °C 5,0 °C 5,6 °C 91 % 1032,2 hPa 0,0 mm 0,0 mm 0,0 km/h 0,0 km/h NNO 9,0 W/qm 0,0 nein 07:10
07:15-1,4 °C 5,0 °C 5,6 °C 91 % 1032,3 hPa 0,0 mm - 0,0 km/h 0,0 km/h NNO 11,0 W/qm 0,0 nein 07:15
07:20-1,4 °C 5,0 °C 5,6 °C 91 % 1032,3 hPa 0,0 mm - 0,0 km/h 0,0 km/h NNO 12,0 W/qm 0,0 nein 07:20
07:25-1,3 °C 5,0 °C 5,6 °C 91 % 1032,3 hPa 0,0 mm - 0,0 km/h 0,0 km/h NNO 16,0 W/qm 0,0 nein 07:25
07:30-1,3 °C 5,0 °C 5,6 °C 91 % 1032,3 hPa 0,0 mm - 0,0 km/h 0,0 km/h NNO 19,0 W/qm 0,0 nein 07:30
07:35-1,4 °C 5,0 °C 5,6 °C 91 % 1032,3 hPa 0,0 mm - 0,0 km/h 0,0 km/h NNO 21,0 W/qm 0,0 nein 07:35
07:40-1,4 °C 5,0 °C 5,6 °C 91 % 1032,3 hPa 0,0 mm - 0,0 km/h 0,0 km/h NNO 25,0 W/qm 0,0 nein 07:40
07:45-1,3 °C 5,0 °C 5,6 °C 91 % 1032,3 hPa 0,0 mm - 0,0 km/h 0,0 km/h NNO 26,0 W/qm 0,0 nein 07:45
07:50-1,2 °C 5,0 °C 5,6 °C 91 % 1032,3 hPa 0,0 mm - 0,0 km/h 0,0 km/h NNO 28,0 W/qm 0,0 nein 07:50
07:55-1,1 °C 5,0 °C 5,6 °C 92 % 1032,4 hPa 0,0 mm - 0,0 km/h 0,0 km/h NNO 32,0 W/qm 0,0 nein 07:55
08:00-0,9 °C 5,0 °C 5,6 °C 91 % 1032,3 hPa 0,0 mm - 0,0 km/h 0,0 km/h NNO 33,0 W/qm 0,0 nein 08:00
08:05-0,8 °C 5,0 °C 5,6 °C 91 % 1032,3 hPa 0,0 mm 0,0 mm 0,0 km/h 0,0 km/h NNO 35,0 W/qm 0,0 nein 08:05
08:10-0,6 °C 5,0 °C 5,6 °C 91 % 1032,4 hPa 0,0 mm 0,0 mm 0,0 km/h 0,0 km/h NNO 39,0 W/qm 0,0 nein 08:10
08:15-0,6 °C 5,0 °C 5,6 °C 91 % 1032,4 hPa 0,0 mm - 0,0 km/h 0,0 km/h NNO 46,0 W/qm 0,0 nein 08:15
08:20-0,5 °C 5,0 °C 5,6 °C 91 % 1032,4 hPa 0,0 mm - 0,0 km/h 0,0 km/h NNO 49,0 W/qm 0,0 nein 08:20
08:25-0,4 °C 5,0 °C 5,6 °C 91 % 1032,5 hPa 0,0 mm - 0,0 km/h 0,0 km/h NNO 51,0 W/qm 0,0 nein 08:25
08:30-0,1 °C 5,0 °C 5,6 °C 91 % 1032,3 hPa 0,0 mm - 0,0 km/h 0,0 km/h NNO 53,0 W/qm 0,0 nein 08:30
08:350,3 °C 5,0 °C 5,6 °C 91 % 1032,3 hPa 0,0 mm - 0,0 km/h 0,0 km/h NNO 54,0 W/qm 0,0 nein 08:35
08:400,6 °C 5,0 °C 5,6 °C 91 % 1032,3 hPa 0,0 mm - 0,0 km/h 0,0 km/h NNO 56,0 W/qm 0,0 nein 08:40
08:451,0 °C 5,0 °C 5,6 °C 91 % 1032,1 hPa 0,0 mm - 0,0 km/h 0,0 km/h NNO 58,0 W/qm 0,0 nein 08:45
08:501,3 °C 5,0 °C 5,6 °C 90 % 1032,1 hPa 0,0 mm - 0,0 km/h 0,0 km/h SSW 60,0 W/qm 0,0 nein 08:50
08:551,5 °C 5,0 °C 5,6 °C 90 % 1032,1 hPa 0,0 mm - 0,0 km/h 3,2 km/h SSW 62,0 W/qm 0,0 nein 08:55
UhrzeitTemperaturBoden 10cmBoden 20cmFeuchteLuftdruckNiederschlagEvapotranspirationWindWindböenWindrichtungSolarstrahlungUV-IndexSonne?Uhrzeit
09:001,8 °C 5,0 °C 5,6 °C 89 % 1032,0 hPa 0,0 mm - 0,0 km/h 3,2 km/h SSW 63,0 W/qm 0,0 nein 09:00
09:052,1 °C 5,0 °C 5,6 °C 89 % 1031,9 hPa 0,0 mm 0,0 mm 0,0 km/h 3,2 km/h SSW 65,0 W/qm 0,0 nein 09:05
09:102,6 °C 5,0 °C 5,6 °C 88 % 1031,9 hPa 0,0 mm 0,0 mm 0,0 km/h 3,2 km/h SSW 265,0 W/qm 0,5 nein 09:10
09:153,3 °C 5,0 °C 5,6 °C 87 % 1031,8 hPa 0,0 mm - 0,0 km/h 0,0 km/h SSW 279,0 W/qm 0,6 ja 09:15
09:203,8 °C 5,0 °C 5,6 °C 85 % 1031,7 hPa 0,0 mm - 0,0 km/h 1,4 km/h SSW 295,0 W/qm 0,6 ja 09:20
09:254,4 °C 5,0 °C 5,6 °C 84 % 1031,6 hPa 0,0 mm - 1,4 km/h 4,7 km/h SSW 318,0 W/qm 0,6 ja 09:25
09:304,8 °C 5,0 °C 5,6 °C 83 % 1031,7 hPa 0,0 mm - 1,4 km/h 4,7 km/h SSW 334,0 W/qm 0,7 ja 09:30
09:355,2 °C 5,0 °C 5,6 °C 82 % 1031,5 hPa 0,0 mm - 1,4 km/h 4,7 km/h SSW 343,0 W/qm 0,7 ja 09:35
09:405,6 °C 5,0 °C 5,6 °C 81 % 1031,4 hPa 0,0 mm - 1,4 km/h 4,7 km/h SSW 359,0 W/qm 0,8 ja 09:40
09:456,1 °C 5,0 °C 5,6 °C 80 % 1031,4 hPa 0,0 mm - 0,0 km/h 4,7 km/h SSW 373,0 W/qm 0,9 ja 09:45
09:506,6 °C 5,0 °C 5,6 °C 78 % 1031,3 hPa 0,0 mm - 0,0 km/h 4,7 km/h SSW 387,0 W/qm 0,9 ja 09:50
09:557,1 °C 5,0 °C 5,6 °C 77 % 1031,2 hPa 0,0 mm - 0,0 km/h 3,2 km/h SSW 401,0 W/qm 1,0 ja 09:55
10:007,6 °C 5,0 °C 5,6 °C 75 % 1031,1 hPa 0,0 mm - 1,4 km/h 3,2 km/h S 413,0 W/qm 1,0 ja 10:00
10:058,1 °C 5,0 °C 5,6 °C 74 % 1031,0 hPa 0,0 mm 0,2 mm 1,4 km/h 4,7 km/h S 425,0 W/qm 1,1 ja 10:05
10:108,6 °C 5,0 °C 5,6 °C 73 % 1030,9 hPa 0,0 mm 0,2 mm 1,4 km/h 4,7 km/h S 438,0 W/qm 1,1 ja 10:10
10:158,9 °C 5,0 °C 5,6 °C 71 % 1031,0 hPa 0,0 mm - 1,4 km/h 4,7 km/h S 450,0 W/qm 1,2 ja 10:15
10:209,1 °C 5,0 °C 5,6 °C 71 % 1030,9 hPa 0,0 mm - 1,4 km/h 4,7 km/h S 461,0 W/qm 1,2 ja 10:20
10:259,4 °C 5,0 °C 5,6 °C 71 % 1030,8 hPa 0,0 mm - 1,4 km/h 6,5 km/h S 471,0 W/qm 1,3 ja 10:25
10:309,6 °C 5,0 °C 5,6 °C 71 % 1030,8 hPa 0,0 mm - 1,4 km/h 6,5 km/h S 483,0 W/qm 1,4 ja 10:30
10:3510,3 °C 5,0 °C 5,6 °C 71 % 1030,6 hPa 0,0 mm - 0,0 km/h 6,5 km/h S 496,0 W/qm 1,4 ja 10:35
10:4010,6 °C 5,0 °C 5,6 °C 69 % 1030,5 hPa 0,0 mm - 0,0 km/h 4,7 km/h S 504,0 W/qm 1,5 ja 10:40
10:4511,2 °C 5,0 °C 5,6 °C 68 % 1030,4 hPa 0,0 mm - 1,4 km/h 4,7 km/h S 515,0 W/qm 1,5 ja 10:45
10:5011,6 °C 5,0 °C 5,6 °C 66 % 1030,5 hPa 0,0 mm - 1,4 km/h 4,7 km/h S 526,0 W/qm 1,6 ja 10:50
10:5512,4 °C 5,0 °C 5,6 °C 65 % 1030,2 hPa 0,0 mm - 3,2 km/h 4,7 km/h S 536,0 W/qm 1,6 ja 10:55
UhrzeitTemperaturBoden 10cmBoden 20cmFeuchteLuftdruckNiederschlagEvapotranspirationWindWindböenWindrichtungSolarstrahlungUV-IndexSonne?Uhrzeit
11:0012,6 °C 5,0 °C 5,6 °C 64 % 1030,2 hPa 0,0 mm - 3,2 km/h 7,9 km/h S 548,0 W/qm 1,7 ja 11:00
11:0512,8 °C 5,0 °C 5,6 °C 63 % 1030,2 hPa 0,0 mm 0,4 mm 1,4 km/h 9,7 km/h SSW 557,0 W/qm 1,8 ja 11:05
11:1012,8 °C 5,0 °C 5,6 °C 63 % 1030,2 hPa 0,0 mm 0,4 mm 1,4 km/h 9,7 km/h SSO 568,0 W/qm 1,8 ja 11:10
11:1513,2 °C 5,0 °C 5,6 °C 61 % 1030,0 hPa 0,0 mm - 3,2 km/h 9,7 km/h SSO 577,0 W/qm 1,9 ja 11:15
11:2013,7 °C 5,0 °C 5,6 °C 60 % 1030,0 hPa 0,0 mm - 3,2 km/h 6,5 km/h SSO 585,0 W/qm 1,9 ja 11:20
11:2513,4 °C 5,0 °C 5,6 °C 60 % 1029,9 hPa 0,0 mm - 3,2 km/h 9,7 km/h S 594,0 W/qm 2,0 ja 11:25
11:3013,7 °C 5,0 °C 5,6 °C 61 % 1030,0 hPa 0,0 mm - 3,2 km/h 9,7 km/h S 603,0 W/qm 2,0 ja 11:30
11:3514,0 °C 5,0 °C 5,6 °C 59 % 1029,8 hPa 0,0 mm - 3,2 km/h 9,7 km/h S 613,0 W/qm 2,1 ja 11:35
11:4014,1 °C 5,0 °C 5,6 °C 58 % 1029,8 hPa 0,0 mm - 4,7 km/h 9,7 km/h S 619,0 W/qm 2,1 ja 11:40
11:4514,1 °C 5,0 °C 5,6 °C 58 % 1029,7 hPa 0,0 mm - 4,7 km/h 13,0 km/h S 629,0 W/qm 2,2 ja 11:45
11:5014,5 °C 5,0 °C 5,6 °C 58 % 1029,6 hPa 0,0 mm - 4,7 km/h 13,0 km/h S 638,0 W/qm 2,2 ja 11:50
11:5514,7 °C 5,0 °C 5,6 °C 57 % 1029,6 hPa 0,0 mm - 4,7 km/h 11,2 km/h S 642,0 W/qm 2,2 ja 11:55
12:0014,8 °C 5,0 °C 5,6 °C 58 % 1029,5 hPa 0,0 mm - 4,7 km/h 11,2 km/h S 649,0 W/qm 2,2 ja 12:00
12:0514,8 °C 5,6 °C 5,6 °C 57 % 1029,5 hPa 0,0 mm 0,7 mm 4,7 km/h 13,0 km/h SSO 656,0 W/qm 2,3 ja 12:05
12:1014,9 °C 5,6 °C 5,6 °C 57 % 1029,4 hPa 0,0 mm 0,7 mm 4,7 km/h 14,4 km/h SSO 666,0 W/qm 2,4 ja 12:10
12:1515,3 °C 5,6 °C 5,6 °C 58 % 1029,2 hPa 0,0 mm - 3,2 km/h 14,4 km/h WSW 670,0 W/qm 2,4 ja 12:15
12:2015,5 °C 5,6 °C 5,6 °C 58 % 1029,2 hPa 0,0 mm - 3,2 km/h 14,4 km/h ONO 673,0 W/qm 2,4 ja 12:20
12:2515,4 °C 5,6 °C 5,6 °C 57 % 1029,2 hPa 0,0 mm - 1,4 km/h 11,2 km/h ONO 671,0 W/qm 2,4 ja 12:25
12:3015,3 °C 5,6 °C 5,6 °C 57 % 1029,2 hPa 0,0 mm - 3,2 km/h 9,7 km/h SO 668,0 W/qm 2,4 ja 12:30
12:3515,3 °C 5,6 °C 5,6 °C 58 % 1029,0 hPa 0,0 mm - 3,2 km/h 13,0 km/h SO 668,0 W/qm 2,5 ja 12:35
12:4015,4 °C 5,6 °C 5,6 °C 57 % 1029,0 hPa 0,0 mm - 1,4 km/h 13,0 km/h SSW 671,0 W/qm 2,5 ja 12:40
12:4516,1 °C 5,6 °C 5,6 °C 58 % 1028,7 hPa 0,0 mm - 1,4 km/h 13,0 km/h SSO 687,0 W/qm 2,6 ja 12:45
12:5016,6 °C 5,6 °C 5,6 °C 53 % 1028,6 hPa 0,0 mm - 3,2 km/h 7,9 km/h SSO 701,0 W/qm 2,6 ja 12:50
12:5516,4 °C 5,6 °C 5,6 °C 52 % 1028,6 hPa 0,0 mm - 4,7 km/h 13,0 km/h SSO 691,0 W/qm 2,6 ja 12:55
UhrzeitTemperaturBoden 10cmBoden 20cmFeuchteLuftdruckNiederschlagEvapotranspirationWindWindböenWindrichtungSolarstrahlungUV-IndexSonne?Uhrzeit
13:0016,2 °C 5,6 °C 5,6 °C 55 % 1028,6 hPa 0,0 mm - 3,2 km/h 13,0 km/h NO 701,0 W/qm 2,6 ja 13:00
13:0516,6 °C 6,1 °C 5,6 °C 52 % 1028,4 hPa 0,0 mm 1,1 mm 3,2 km/h 13,0 km/h S 698,0 W/qm 2,6 ja 13:05
13:1016,8 °C 6,1 °C 5,6 °C 53 % 1028,4 hPa 0,0 mm 1,1 mm 4,7 km/h 13,0 km/h S 703,0 W/qm 2,6 ja 13:10
13:1516,8 °C 6,1 °C 5,6 °C 52 % 1028,3 hPa 0,0 mm - 4,7 km/h 11,2 km/h S 703,0 W/qm 2,6 ja 13:15
13:2016,6 °C 6,1 °C 5,6 °C 52 % 1028,3 hPa 0,0 mm - 3,2 km/h 11,2 km/h SSW 703,0 W/qm 2,6 ja 13:20
13:2517,2 °C 6,1 °C 5,6 °C 52 % 1028,2 hPa 0,0 mm - 4,7 km/h 11,2 km/h SSO 700,0 W/qm 2,6 ja 13:25
13:3016,9 °C 6,1 °C 5,6 °C 55 % 1028,2 hPa 0,0 mm - 4,7 km/h 11,2 km/h NO 703,0 W/qm 2,6 ja 13:30
13:3517,1 °C 6,1 °C 5,6 °C 53 % 1028,0 hPa 0,0 mm - 3,2 km/h 13,0 km/h SSO 698,0 W/qm 2,6 ja 13:35
13:4017,5 °C 6,1 °C 5,6 °C 53 % 1028,0 hPa 0,0 mm - 3,2 km/h 13,0 km/h NO 705,0 W/qm 2,6 ja 13:40
13:4517,1 °C 6,1 °C 5,6 °C 51 % 1028,0 hPa 0,0 mm - 3,2 km/h 9,7 km/h N 696,0 W/qm 2,6 ja 13:45
13:5017,2 °C 6,1 °C 5,6 °C 51 % 1028,0 hPa 0,0 mm - 3,2 km/h 13,0 km/h SSO 701,0 W/qm 2,6 ja 13:50
13:5516,9 °C 6,7 °C 5,6 °C 51 % 1028,0 hPa 0,0 mm - 4,7 km/h 13,0 km/h SSO 693,0 W/qm 2,6 ja 13:55
14:0017,3 °C 6,7 °C 5,6 °C 51 % 1027,8 hPa 0,0 mm - 4,7 km/h 11,2 km/h S 694,0 W/qm 2,5 ja 14:00
14:0517,5 °C 6,7 °C 5,6 °C 51 % 1027,8 hPa 0,0 mm 1,5 mm 3,2 km/h 11,2 km/h S 700,0 W/qm 2,6 ja 14:05
14:1017,5 °C 6,7 °C 5,6 °C 50 % 1027,8 hPa 0,0 mm 1,5 mm 3,2 km/h 9,7 km/h SSO 693,0 W/qm 2,5 ja 14:10
14:1517,6 °C 6,7 °C 6,1 °C 51 % 1027,6 hPa 0,0 mm - 1,4 km/h 9,7 km/h ONO 714,0 W/qm 2,6 ja 14:15
14:2017,7 °C 6,7 °C 6,1 °C 52 % 1027,5 hPa 0,0 mm - 4,7 km/h 9,7 km/h NO 726,0 W/qm 2,5 ja 14:20
14:2517,6 °C 6,7 °C 6,1 °C 52 % 1027,3 hPa 0,0 mm - 6,5 km/h 14,4 km/h NO 731,0 W/qm 2,5 ja 14:25
14:3017,5 °C 6,7 °C 6,1 °C 53 % 1027,4 hPa 0,0 mm - 6,5 km/h 16,2 km/h NNO 758,0 W/qm 1,8 ja 14:30
14:3516,9 °C 6,7 °C 6,1 °C 51 % 1027,6 hPa 0,0 mm - 7,9 km/h 16,2 km/h ONO 200,0 W/qm 2,2 nein 14:35
14:4017,2 °C 7,2 °C 6,1 °C 53 % 1027,4 hPa 0,0 mm - 7,9 km/h 16,2 km/h NO 489,0 W/qm 2,1 ja 14:40
14:4517,4 °C 7,2 °C 6,1 °C 51 % 1027,3 hPa 0,0 mm - 6,5 km/h 16,2 km/h O 649,0 W/qm 2,2 ja 14:45
14:5017,5 °C 7,2 °C 6,1 °C 52 % 1027,3 hPa 0,0 mm - 6,5 km/h 14,4 km/h NO 696,0 W/qm 2,2 ja 14:50
14:5517,5 °C 7,2 °C 6,1 °C 52 % 1027,3 hPa 0,0 mm - 4,7 km/h 14,4 km/h NO 700,0 W/qm 2,2 ja 14:55
UhrzeitTemperaturBoden 10cmBoden 20cmFeuchteLuftdruckNiederschlagEvapotranspirationWindWindböenWindrichtungSolarstrahlungUV-IndexSonne?Uhrzeit
15:0018,1 °C 7,2 °C 6,1 °C 50 % 1027,1 hPa 0,0 mm - 3,2 km/h 13,0 km/h SW 751,0 W/qm 2,3 ja 15:00
15:0518,3 °C 7,2 °C 6,1 °C 51 % 1027,0 hPa 0,0 mm 1,9 mm 4,7 km/h 11,2 km/h ONO 274,0 W/qm 1,6 ja 15:05
15:1017,5 °C 7,2 °C 6,1 °C 51 % 1027,1 hPa 0,0 mm 1,9 mm 6,5 km/h 13,0 km/h NNW 290,0 W/qm 1,6 ja 15:10
15:1517,3 °C 7,2 °C 6,1 °C 51 % 1027,1 hPa 0,0 mm - 4,7 km/h 13,0 km/h O 221,0 W/qm 1,4 nein 15:15
15:2017,1 °C 7,2 °C 6,1 °C 53 % 1027,1 hPa 0,0 mm - 6,5 km/h 13,0 km/h NO 195,0 W/qm 1,3 nein 15:20
15:2516,8 °C 7,2 °C 6,1 °C 52 % 1027,2 hPa 0,0 mm - 4,7 km/h 13,0 km/h SO 176,0 W/qm 1,3 nein 15:25
15:3016,7 °C 7,8 °C 6,1 °C 53 % 1027,1 hPa 0,0 mm - 3,2 km/h 13,0 km/h NNO 181,0 W/qm 1,3 nein 15:30
15:3516,9 °C 7,8 °C 6,1 °C 52 % 1026,9 hPa 0,0 mm - 1,4 km/h 13,0 km/h N 664,0 W/qm 1,9 ja 15:35
15:4018,0 °C 7,8 °C 6,1 °C 50 % 1026,8 hPa 0,0 mm - 1,4 km/h 7,9 km/h SW 645,0 W/qm 1,9 ja 15:40
15:4517,9 °C 7,8 °C 6,1 °C 50 % 1026,7 hPa 0,0 mm - 1,4 km/h 6,5 km/h NNO 659,0 W/qm 1,9 ja 15:45
15:5018,2 °C 7,8 °C 6,1 °C 52 % 1026,6 hPa 0,0 mm - 3,2 km/h 9,7 km/h NO 622,0 W/qm 1,8 ja 15:50
15:5518,1 °C 7,8 °C 6,1 °C 52 % 1026,7 hPa 0,0 mm - 4,7 km/h 9,7 km/h NO 624,0 W/qm 1,4 ja 15:55
16:0017,5 °C 7,8 °C 6,1 °C 51 % 1026,7 hPa 0,0 mm - 6,5 km/h 16,2 km/h NO 554,0 W/qm 1,6 ja 16:00
16:0517,6 °C 7,8 °C 6,1 °C 52 % 1026,6 hPa 0,0 mm 2,2 mm 4,7 km/h 16,2 km/h N 141,0 W/qm 1,2 nein 16:05
16:1017,3 °C 7,8 °C 6,1 °C 53 % 1026,7 hPa 0,0 mm 2,2 mm 3,2 km/h 14,4 km/h NO 554,0 W/qm 1,5 ja 16:10
16:1517,3 °C 7,8 °C 6,1 °C 51 % 1026,6 hPa 0,0 mm - 3,2 km/h 13,0 km/h NO 459,0 W/qm 1,4 ja 16:15
16:2017,2 °C 7,8 °C 6,1 °C 51 % 1026,6 hPa 0,0 mm - 1,4 km/h 11,2 km/h SO 255,0 W/qm 1,1 nein 16:20
16:2517,5 °C 7,8 °C 6,1 °C 51 % 1026,5 hPa 0,0 mm - 0,0 km/h 11,2 km/h SSO 290,0 W/qm 1,3 ja 16:25
16:3017,7 °C 7,8 °C 6,1 °C 53 % 1026,4 hPa 0,0 mm - 1,4 km/h 4,7 km/h NNO 489,0 W/qm 1,2 ja 16:30
16:3517,9 °C 7,8 °C 6,1 °C 52 % 1026,3 hPa 0,0 mm - 3,2 km/h 9,7 km/h O 512,0 W/qm 1,3 ja 16:35
16:4017,8 °C 7,8 °C 6,1 °C 52 % 1026,3 hPa 0,0 mm - 4,7 km/h 9,7 km/h NO 492,0 W/qm 1,2 ja 16:40
16:4517,7 °C 7,8 °C 6,1 °C 51 % 1026,2 hPa 0,0 mm - 4,7 km/h 13,0 km/h O 480,0 W/qm 1,1 ja 16:45
16:5017,8 °C 7,8 °C 6,7 °C 52 % 1026,2 hPa 0,0 mm - 6,5 km/h 13,0 km/h NNO 468,0 W/qm 1,1 ja 16:50
16:5517,6 °C 7,8 °C 6,7 °C 52 % 1026,2 hPa 0,0 mm - 7,9 km/h 16,2 km/h O 213,0 W/qm 0,9 nein 16:55
UhrzeitTemperaturBoden 10cmBoden 20cmFeuchteLuftdruckNiederschlagEvapotranspirationWindWindböenWindrichtungSolarstrahlungUV-IndexSonne?Uhrzeit
17:0017,5 °C 7,8 °C 6,7 °C 51 % 1026,2 hPa 0,0 mm - 4,7 km/h 16,2 km/h NO 448,0 W/qm 0,9 ja 17:00
17:0517,6 °C 8,3 °C 6,7 °C 53 % 1026,2 hPa 0,0 mm 2,4 mm 4,7 km/h 16,2 km/h NO 269,0 W/qm 0,8 nein 17:05
17:1017,4 °C 8,3 °C 6,7 °C 51 % 1026,2 hPa 0,0 mm 2,4 mm 3,2 km/h 13,0 km/h NNO 380,0 W/qm 0,8 ja 17:10
17:1517,4 °C 8,3 °C 6,7 °C 52 % 1026,2 hPa 0,0 mm - 4,7 km/h 11,2 km/h NO 371,0 W/qm 0,8 ja 17:15
17:2017,3 °C 8,3 °C 6,7 °C 51 % 1026,1 hPa 0,0 mm - 4,7 km/h 13,0 km/h O 348,0 W/qm 0,7 ja 17:20
17:2517,4 °C 8,3 °C 6,7 °C 53 % 1026,0 hPa 0,0 mm - 4,7 km/h 14,4 km/h ONO 323,0 W/qm 0,7 ja 17:25
17:3017,5 °C 8,3 °C 6,7 °C 50 % 1026,0 hPa 0,0 mm - 3,2 km/h 14,4 km/h SW 315,0 W/qm 0,7 ja 17:30
17:3517,6 °C 8,3 °C 6,7 °C 51 % 1026,0 hPa 0,0 mm - 1,4 km/h 14,4 km/h N 302,0 W/qm 0,6 ja 17:35
17:4017,3 °C 8,3 °C 6,7 °C 52 % 1025,9 hPa 0,0 mm - 1,4 km/h 9,7 km/h NO 290,0 W/qm 0,6 ja 17:40
17:4517,1 °C 8,3 °C 6,7 °C 51 % 1026,0 hPa 0,0 mm - 1,4 km/h 6,5 km/h NO 274,0 W/qm 0,5 ja 17:45
17:5017,2 °C 8,3 °C 6,7 °C 52 % 1026,0 hPa 0,0 mm - 0,0 km/h 7,9 km/h NO 257,0 W/qm 0,5 nein 17:50
17:5517,0 °C 8,3 °C 6,7 °C 52 % 1026,0 hPa 0,0 mm - 1,4 km/h 7,9 km/h ONO 244,0 W/qm 0,5 nein 17:55
18:0017,1 °C 8,3 °C 6,7 °C 51 % 1026,0 hPa 0,0 mm - 1,4 km/h 11,2 km/h NNW 225,0 W/qm 0,0 nein 18:00
18:0516,8 °C 8,3 °C 6,7 °C 53 % 1026,0 hPa 0,0 mm 2,6 mm 1,4 km/h 11,2 km/h NNO 211,0 W/qm 0,0 nein 18:05
18:1016,6 °C 8,3 °C 6,7 °C 53 % 1026,1 hPa 0,0 mm 2,6 mm 1,4 km/h 11,2 km/h NO 192,0 W/qm 0,0 nein 18:10
18:1516,3 °C 8,3 °C 6,7 °C 54 % 1026,2 hPa 0,0 mm - 1,4 km/h 9,7 km/h NO 176,0 W/qm 0,0 nein 18:15
18:2016,3 °C 8,3 °C 6,7 °C 54 % 1026,1 hPa 0,0 mm - 1,4 km/h 7,9 km/h NO 156,0 W/qm 0,0 nein 18:20
18:2516,1 °C 8,3 °C 6,7 °C 54 % 1026,2 hPa 0,0 mm - 1,4 km/h 6,5 km/h NNO 137,0 W/qm 0,0 nein 18:25
18:3016,1 °C 8,3 °C 6,7 °C 55 % 1026,2 hPa 0,0 mm - 1,4 km/h 7,9 km/h NNW 79,0 W/qm 0,0 nein 18:30
18:3516,0 °C 8,3 °C 6,7 °C 55 % 1026,1 hPa 0,0 mm - 1,4 km/h 7,9 km/h NNW 84,0 W/qm 0,0 nein 18:35
18:4015,8 °C 8,3 °C 6,7 °C 55 % 1026,1 hPa 0,0 mm - 0,0 km/h 7,9 km/h ONO 47,0 W/qm 0,0 nein 18:40
18:4515,7 °C 8,3 °C 6,7 °C 56 % 1026,1 hPa 0,0 mm - 0,0 km/h 6,5 km/h NNO 42,0 W/qm 0,0 nein 18:45
18:5015,6 °C 8,3 °C 6,7 °C 57 % 1026,1 hPa 0,0 mm - 0,0 km/h 3,2 km/h NNO 33,0 W/qm 0,0 nein 18:50
18:5515,3 °C 8,3 °C 6,7 °C 57 % 1026,2 hPa 0,0 mm - 0,0 km/h 4,7 km/h NNO 32,0 W/qm 0,0 nein 18:55
UhrzeitTemperaturBoden 10cmBoden 20cmFeuchteLuftdruckNiederschlagEvapotranspirationWindWindböenWindrichtungSolarstrahlungUV-IndexSonne?Uhrzeit
19:0015,1 °C 8,3 °C 6,7 °C 58 % 1026,1 hPa 0,0 mm - 1,4 km/h 4,7 km/h NNW 28,0 W/qm 0,0 nein 19:00
19:0515,0 °C 8,3 °C 6,7 °C 59 % 1026,2 hPa 0,0 mm 2,7 mm 1,4 km/h 4,7 km/h NNW 25,0 W/qm 0,0 nein 19:05
19:1014,8 °C 8,3 °C 6,7 °C 60 % 1026,3 hPa 0,0 mm 2,7 mm 0,0 km/h 4,7 km/h NW 23,0 W/qm 0,0 nein 19:10
19:1514,6 °C 8,3 °C 6,7 °C 61 % 1026,3 hPa 0,0 mm - 0,0 km/h 4,7 km/h NNW 19,0 W/qm 0,0 nein 19:15
19:2014,2 °C 8,3 °C 6,7 °C 62 % 1026,4 hPa 0,0 mm - 0,0 km/h 4,7 km/h NNO 18,0 W/qm 0,0 nein 19:20
19:2513,9 °C 8,3 °C 6,7 °C 63 % 1026,4 hPa 0,0 mm - 0,0 km/h 4,7 km/h NNO 14,0 W/qm 0,0 nein 19:25
19:3013,6 °C 8,3 °C 6,7 °C 64 % 1026,5 hPa 0,0 mm - 0,0 km/h 4,7 km/h NNO 11,0 W/qm 0,0 nein 19:30
19:3513,2 °C 8,3 °C 6,7 °C 66 % 1026,6 hPa 0,0 mm - 0,0 km/h 3,2 km/h ONO 9,0 W/qm 0,0 nein 19:35
19:4012,8 °C 8,3 °C 6,7 °C 67 % 1026,7 hPa 0,0 mm - 0,0 km/h 4,7 km/h ONO 5,0 W/qm 0,0 nein 19:40
19:4512,3 °C 8,3 °C 6,7 °C 67 % 1026,7 hPa 0,0 mm - 0,0 km/h 4,7 km/h ONO 0,0 W/qm 0,0 nein 19:45
19:5012,0 °C 7,8 °C 6,7 °C 69 % 1026,8 hPa 0,0 mm - 0,0 km/h 4,7 km/h ONO 0,0 W/qm 0,0 nein 19:50
19:5511,9 °C 7,8 °C 6,7 °C 70 % 1026,8 hPa 0,0 mm - 0,0 km/h 0,0 km/h ONO 0,0 W/qm 0,0 nein 19:55
20:0011,8 °C 7,8 °C 6,7 °C 70 % 1026,8 hPa 0,0 mm - 0,0 km/h 0,0 km/h ONO 0,0 W/qm 0,0 nein 20:00
20:0511,7 °C 7,8 °C 6,7 °C 70 % 1026,8 hPa 0,0 mm 2,7 mm 0,0 km/h 0,0 km/h ONO 0,0 W/qm 0,0 nein 20:05
20:1011,4 °C 7,8 °C 6,7 °C 71 % 1026,8 hPa 0,0 mm 2,7 mm 0,0 km/h 0,0 km/h ONO 0,0 W/qm 0,0 nein 20:10
20:1511,3 °C 7,8 °C 6,7 °C 72 % 1026,9 hPa 0,0 mm - 0,0 km/h 3,2 km/h ONO 0,0 W/qm 0,0 nein 20:15
20:2011,1 °C 7,8 °C 6,7 °C 72 % 1027,0 hPa 0,0 mm - 0,0 km/h 4,7 km/h NNO 0,0 W/qm 0,0 nein 20:20
20:2510,9 °C 7,8 °C 6,7 °C 73 % 1027,0 hPa 0,0 mm - 0,0 km/h 4,7 km/h NNO 0,0 W/qm 0,0 nein 20:25
20:3010,8 °C 7,8 °C 6,7 °C 73 % 1027,1 hPa 0,0 mm - 0,0 km/h 6,5 km/h NNO 0,0 W/qm 0,0 nein 20:30
20:3510,7 °C 7,8 °C 6,7 °C 74 % 1027,2 hPa 0,0 mm - 0,0 km/h 6,5 km/h N 0,0 W/qm 0,0 nein 20:35
20:4010,6 °C 7,8 °C 6,7 °C 74 % 1027,3 hPa 0,0 mm - 0,0 km/h 3,2 km/h N 0,0 W/qm 0,0 nein 20:40
20:4510,3 °C 7,8 °C 6,7 °C 75 % 1027,4 hPa 0,0 mm - 0,0 km/h 3,2 km/h N 0,0 W/qm 0,0 nein 20:45
20:5010,1 °C 7,8 °C 6,7 °C 76 % 1027,4 hPa 0,0 mm - 0,0 km/h 3,2 km/h N 0,0 W/qm 0,0 nein 20:50
20:559,8 °C 7,8 °C 6,7 °C 76 % 1027,6 hPa 0,0 mm - 0,0 km/h 0,0 km/h N 0,0 W/qm 0,0 nein 20:55
UhrzeitTemperaturBoden 10cmBoden 20cmFeuchteLuftdruckNiederschlagEvapotranspirationWindWindböenWindrichtungSolarstrahlungUV-IndexSonne?Uhrzeit
21:009,6 °C 7,8 °C 6,7 °C 77 % 1027,6 hPa 0,0 mm - 0,0 km/h 0,0 km/h N 0,0 W/qm 0,0 nein 21:00
21:059,4 °C 7,8 °C 7,2 °C 77 % 1027,7 hPa 0,0 mm 2,7 mm 0,0 km/h 0,0 km/h N 0,0 W/qm 0,0 nein 21:05
21:109,4 °C 7,8 °C 7,2 °C 78 % 1027,8 hPa 0,0 mm 2,7 mm 0,0 km/h 0,0 km/h N 0,0 W/qm 0,0 nein 21:10
21:159,2 °C 7,8 °C 7,2 °C 78 % 1027,8 hPa 0,0 mm - 0,0 km/h 0,0 km/h N 0,0 W/qm 0,0 nein 21:15
21:209,1 °C 7,8 °C 7,2 °C 79 % 1027,7 hPa 0,0 mm - 0,0 km/h 0,0 km/h N 0,0 W/qm 0,0 nein 21:20
21:258,8 °C 7,8 °C 7,2 °C 79 % 1027,7 hPa 0,0 mm - 0,0 km/h 0,0 km/h N 0,0 W/qm 0,0 nein 21:25
21:308,6 °C 7,8 °C 7,2 °C 79 % 1027,9 hPa 0,0 mm - 0,0 km/h 0,0 km/h N 0,0 W/qm 0,0 nein 21:30
21:358,3 °C 7,8 °C 7,2 °C 80 % 1027,9 hPa 0,0 mm - 0,0 km/h 0,0 km/h N 0,0 W/qm 0,0 nein 21:35
21:408,2 °C 7,8 °C 7,2 °C 80 % 1028,0 hPa 0,0 mm - 0,0 km/h 0,0 km/h N 0,0 W/qm 0,0 nein 21:40
21:458,1 °C 7,8 °C 7,2 °C 81 % 1028,0 hPa 0,0 mm - 0,0 km/h 0,0 km/h N 0,0 W/qm 0,0 nein 21:45
21:508,0 °C 7,8 °C 7,2 °C 81 % 1028,1 hPa 0,0 mm - 0,0 km/h 1,4 km/h N 0,0 W/qm 0,0 nein 21:50
21:557,8 °C 7,8 °C 7,2 °C 81 % 1028,1 hPa 0,0 mm - 0,0 km/h 3,2 km/h N 0,0 W/qm 0,0 nein 21:55
22:007,7 °C 7,8 °C 7,2 °C 82 % 1028,1 hPa 0,0 mm - 0,0 km/h 3,2 km/h N 0,0 W/qm 0,0 nein 22:00
22:057,8 °C 7,8 °C 7,2 °C 81 % 1028,1 hPa 0,0 mm 2,7 mm 0,0 km/h 0,0 km/h N 0,0 W/qm 0,0 nein 22:05
22:107,6 °C 7,8 °C 7,2 °C 81 % 1028,2 hPa 0,0 mm 2,7 mm 0,0 km/h 0,0 km/h N 0,0 W/qm 0,0 nein 22:10
22:157,4 °C 7,8 °C 7,2 °C 82 % 1028,2 hPa 0,0 mm - 0,0 km/h 0,0 km/h N 0,0 W/qm 0,0 nein 22:15
22:207,3 °C 7,8 °C 7,2 °C 82 % 1028,3 hPa 0,0 mm - 0,0 km/h 0,0 km/h N 0,0 W/qm 0,0 nein 22:20
22:257,2 °C 7,8 °C 7,2 °C 82 % 1028,2 hPa 0,0 mm - 0,0 km/h 0,0 km/h N 0,0 W/qm 0,0 nein 22:25
22:307,1 °C 7,8 °C 7,2 °C 82 % 1028,2 hPa 0,0 mm - 0,0 km/h 0,0 km/h N 0,0 W/qm 0,0 nein 22:30
22:356,9 °C 7,8 °C 7,2 °C 83 % 1028,2 hPa 0,0 mm - 0,0 km/h 0,0 km/h N 0,0 W/qm 0,0 nein 22:35
22:406,8 °C 7,8 °C 7,2 °C 83 % 1028,3 hPa 0,0 mm - 0,0 km/h 0,0 km/h N 0,0 W/qm 0,0 nein 22:40
22:456,7 °C 7,8 °C 7,2 °C 84 % 1028,4 hPa 0,0 mm - 0,0 km/h 0,0 km/h N 0,0 W/qm 0,0 nein 22:45
22:506,5 °C 7,2 °C 7,2 °C 83 % 1028,5 hPa 0,0 mm - 0,0 km/h 0,0 km/h N 0,0 W/qm 0,0 nein 22:50
22:556,4 °C 7,2 °C 7,2 °C 84 % 1028,5 hPa 0,0 mm - 0,0 km/h 0,0 km/h N 0,0 W/qm 0,0 nein 22:55
UhrzeitTemperaturBoden 10cmBoden 20cmFeuchteLuftdruckNiederschlagEvapotranspirationWindWindböenWindrichtungSolarstrahlungUV-IndexSonne?Uhrzeit
23:006,3 °C 7,2 °C 7,2 °C 84 % 1028,4 hPa 0,0 mm - 0,0 km/h 0,0 km/h N 0,0 W/qm 0,0 nein 23:00
23:056,2 °C 7,2 °C 7,2 °C 84 % 1028,5 hPa 0,0 mm 2,7 mm 0,0 km/h 0,0 km/h N 0,0 W/qm 0,0 nein 23:05
23:106,1 °C 7,2 °C 7,2 °C 85 % 1028,6 hPa 0,0 mm 2,7 mm 0,0 km/h 0,0 km/h N 0,0 W/qm 0,0 nein 23:10
23:156,0 °C 7,2 °C 7,2 °C 85 % 1028,6 hPa 0,0 mm - 0,0 km/h 0,0 km/h N 0,0 W/qm 0,0 nein 23:15
23:205,9 °C 7,2 °C 7,2 °C 85 % 1028,6 hPa 0,0 mm - 0,0 km/h 0,0 km/h N 0,0 W/qm 0,0 nein 23:20
23:255,7 °C 7,2 °C 6,7 °C 86 % 1028,6 hPa 0,0 mm - 0,0 km/h 0,0 km/h N 0,0 W/qm 0,0 nein 23:25
23:305,7 °C 7,2 °C 6,7 °C 86 % 1028,6 hPa 0,0 mm - 0,0 km/h 0,0 km/h N 0,0 W/qm 0,0 nein 23:30
23:355,6 °C 7,2 °C 6,7 °C 86 % 1028,6 hPa 0,0 mm - 0,0 km/h 0,0 km/h N 0,0 W/qm 0,0 nein 23:35
23:405,6 °C 7,2 °C 6,7 °C 87 % 1028,6 hPa 0,0 mm - 0,0 km/h 0,0 km/h N 0,0 W/qm 0,0 nein 23:40
23:455,4 °C 7,2 °C 6,7 °C 87 % 1028,7 hPa 0,0 mm - 0,0 km/h 0,0 km/h N 0,0 W/qm 0,0 nein 23:45
23:505,3 °C 7,2 °C 6,7 °C 88 % 1028,7 hPa 0,0 mm - 0,0 km/h 0,0 km/h N 0,0 W/qm 0,0 nein 23:50
23:555,3 °C 7,2 °C 6,7 °C 87 % 1028,7 hPa 0,0 mm - 0,0 km/h 0,0 km/h N 0,0 W/qm 0,0 nein 23:55
Gesamt: 8,2 °C 6,4 °C 6,2 °C 73 % 1029,4 hPa 0,0 mm 53,4 mm 1,3 km/h 4,7 km/h 0 206,5 W/qm 0,6 ja

Insgesamt 276 Zeilen mal 13 Spalten = 3588 Werte werden angezeigt.

www.wetter-rosstal.de   •   www.wetter-franken.de   •   www.lightningmaps.org   •   Start   •   Kontakt / Datenschutz   •   PC-Kümmerer